Back to catalog

STARLINK-37841

AliveCommunicationsVLEO
NORAD 69951·PAYLOAD·🇺🇸 United States

Launched Jul 9, 2026 from Cape Canaveral Space Force Station

Loading…

Next Passes (next 24 hours)

TLE

FreshSource: CelesTrak SupGP

Epoch: Sep 14, 2026, 15:23 UTC

1 69951C 26157J   26257.64145833 -.00012011  00000+0 -35499-3 0  2573
2 69951  53.1590   1.3048 0001256  77.0289 183.3305 15.34386114    18

Track STARLINK-37841 in real time with AllMySat

Download on the App Store